Wind_Speed
63 58 67 69 57 58 53 52 56 49 50 50 49 50 47 46 43 45 48 49 45 48 46 48 45 43 43 40 37 33 33 33 26 23 30 34 37 40 41 40 39 40 41 40
73 65 71 73 61 61 61 56 58 53 50 51 50 50 50 50 48 48 49 50 48 48 43 50 42 39 41 40 37 35 33 37 34 26 25 31 34 33 34 36 36 38 39 39
78 75 70 72 66 65 63 62 59 56 51 50 54 54 47 50 51 50 50 53 50 47 45 48 47 43 37 40 40 35 32 35 34 34 28 26 32 34 35 32 36 38 38 39
76 78 78 73 72 69 69 69 64 57 52 55 53 55 52 53 54 53 51 52 51 49 51 51 51 53 43 41 39 38 33 32 34 33 34 31 30 34 36 38 39 39 40 40
78 80 78 75 76 74 70 70 70 65 56 52 56 51 58 55 55 56 53 52 54 53 54 53 51 56 48 42 39 39 35 34 35 36 33 35 33 32 35 38 38 38 39 42
84 80 88 81 84 84 78 74 77 74 66 52 64 54 59 59 61 60 57 57 55 55 57 57 52 54 54 45 39 40 39 37 37 37 36 35 38 39 37 36 37 39 39 40
93 88 92 89 85 89 88 81 80 75 69 60 62 54 62 64 63 63 62 60 61 58 58 57 57 56 57 52 44 40 41 40 40 41 40 39 40 44 45 43 41 38 40 42
101 94 89 88 87 95 96 91 82 79 75 68 64 60 65 68 69 67 66 66 62 64 62 62 61 58 61 58 51 48 45 44 43 44 46 46 51 50 52 49 47 43 43 44
100 97 99 97 100 101 97 96 89 83 77 74 70 66 65 71 75 73 71 70 67 65 66 62 63 66 67 63 55 51 49 46 48 44 48 49 48 54 57 58 53 51 50 50
103 103 102 101 104 98 96 97 93 91 83 80 71 68 67 71 78 79 77 75 72 66 69 66 70 67 69 68 62 56 54 51 48 49 49 47 46 48 48 54 61 61 57 54
107 107 102 104 103 100 102 97 94 95 89 82 76 69 70 67 78 85 85 81 77 72 73 69 70 71 71 67 66 61 60 58 56 54 51 52 50 52 48 48 55 61 60 58
104 110 109 105 103 101 103 96 94 92 86 89 78 62 67 70 79 85 84 83 80 77 80 74 70 71 71 69 68 63 58 57 58 60 58 54 54 57 53 52 57 51 60 61
107 112 108 105 100 91 92 93 94 97 95 89 83 63 70 76 80 83 83 82 80 81 82 79 78 74 75 72 68 69 58 62 58 59 61 62 61 64 60 60 59 57 58 66
112 114 113 102 92 96 96 93 93 97 97 81 79 72 73 75 81 80 79 78 80 81 83 81 80 77 77 77 68 66 60 60 59 60 62 62 68 70 65 65 65 65 62 64
115 114 111 103 102 101 94 92 94 96 89 94 79 79 78 82 84 82 81 74 73 78 81 78 81 80 84 80 76 70 64 60 61 65 65 68 71 72 68 68 68 69 70 68
114 113 109 106 102 101 99 97 94 90 88 89 87 80 83 90 85 83 79 75 75 79 80 77 75 78 82 73 72 72 68 66 66 69 69 71 74 74 72 72 74 74 77 77
109 102 101 99 102 105 105 90 92 90 88 90 89 85 89 89 87 87 81 79 76 77 75 80 72 79 75 72 73 70 70 71 69 70 70 73 77 79 75 75 78 78 82 85
100 102 101 97 101 107 94 95 92 90 92 92 92 89 90 90 89 87 84 83 78 76 76 76 78 82 75 74 73 71 74 76 73 72 72 75 79 81 80 79 81 83 86 88
93 98 99 104 103 101 95 89 93 97 94 91 91 92 94 95 92 88 86 80 77 76 77 75 81 77 74 75 73 75 77 77 75 75 75 79 79 81 81 80 82 87 89 93
91 92 92 91 94 92 79 91 94 95 92 92 94 94 95 96 94 90 87 82 82 83 80 81 77 75 77 75 76 79 77 79 77 74 77 80 83 87 80 86 87 91 93 91
95 90 85 85 88 76 83 91 96 95 86 94 96 96 97 96 93 90 86 86 82 79 80 81 79 78 75 76 79 81 80 80 82 79 81 84 89 94 92 94 99 96 95 98
87 86 84 82 82 75 82 90 94 90 92 92 94 94 95 95 89 87 84 80 76 78 76 78 76 74 74 78 78 78 81 81 79 80 89 92 91 100 101 103 104 105 106 105
80 75 78 81 78 75 79 85 89 88 89 86 84 83 87 87 85 78 75 73 75 76 71 75 73 70 68 71 73 75 77 79 83 90 92 97 102 108 108 109 114 114 117 112
78 78 79 82 76 80 80 80 83 81 79 80 81 82 84 83 81 77 69 72 70 69 73 73 72 73 75 77 79 81 82 88 91 93 97 105 112 115 116 114 113 115 109 104
81 79 81 78 81 88 87 84 84 84 83 82 83 84 83 74 68 67 68 71 73 75 74 76 80 82 85 87 90 91 96 101 103 106 111 114 113 114 111 112 114 106 107 109
77 75 77 80 80 82 82 83 84 85 87 84 83 82 83 88 85 78 76 77 77 78 80 85 87 88 89 93 96 105 106 105 107 116 119 118 117 113 113 115 108 109 111 113
Wind_Direction
278 281 280 278 276 274 278 280 281 290 297 299 300 304 311 313 310 313 319 323 323 326 325 331 337 340 343 344 346 346 349 346 337 313 296 293 295 296 300 301 298 297 294 294
274 274 275 279 273 273 277 277 277 285 292 295 295 300 302 305 304 310 317 318 320 320 320 326 331 333 335 337 340 340 342 344 337 328 312 302 299 298 290 290 292 294 295 294
268 272 273 274 275 271 273 275 277 278 284 291 295 298 300 301 303 307 312 313 317 315 311 323 323 325 326 328 333 335 337 335 336 331 322 310 309 305 297 293 294 293 292 290
265 270 267 271 274 276 277 276 276 274 278 286 288 294 295 298 299 302 304 309 311 312 311 313 324 320 324 325 325 327 329 329 328 330 325 320 310 304 300 301 301 299 294 288
264 266 264 266 275 278 274 274 274 274 275 280 286 292 295 296 295 298 299 303 306 307 311 307 316 319 319 323 319 318 317 315 312 318 320 316 316 314 302 299 296 296 295 292
262 264 261 266 267 274 274 274 273 274 273 275 281 288 294 295 296 296 295 298 301 305 309 307 308 310 312 314 309 306 305 304 302 300 308 310 307 307 309 308 303 298 296 295
259 258 257 264 263 270 273 272 271 271 275 269 275 284 290 294 293 291 291 297 300 299 304 302 302 303 306 308 305 300 300 297 296 296 292 299 302 302 299 302 302 303 305 303
258 259 259 262 263 265 267 271 270 271 268 268 274 280 285 290 291 292 293 292 297 296 297 300 300 298 300 302 307 302 303 300 293 295 296 296 297 295 295 295 298 294 296 307
256 257 256 258 258 263 263 271 270 270 268 270 272 279 282 286 287 289 290 291 293 291 291 295 295 296 297 300 301 305 299 293 301 294 293 296 299 301 299 295 295 296 297 298
257 256 254 257 260 265 267 269 270 272 271 271 272 273 280 280 284 287 287 289 290 290 289 292 297 293 297 298 298 302 299 295 292 294 288 288 290 295 301 302 298 294 296 298
255 255 254 256 258 263 262 267 268 269 271 273 272 272 274 275 279 284 286 287 288 291 288 289 296 292 295 293 293 296 298 296 291 293 288 289 285 291 296 298 298 295 293 293
256 255 256 259 257 257 261 266 267 271 272 270 270 274 272 272 278 283 285 285 288 288 288 286 293 292 292 292 297 293 295 293 288 290 287 283 280 282 292 300 306 293 293 287
256 256 257 257 257 262 265 266 267 268 269 270 271 272 274 275 275 278 278 282 284 284 289 287 292 291 289 292 294 298 294 295 286 285 282 282 280 282 289 298 304 301 289 285
250 250 255 258 259 256 257 259 263 264 265 274 274 274 273 274 276 274 277 278 278 281 288 284 290 290 289 292 289 297 290 291 282 284 281 275 279 279 286 299 304 302 296 297
243 248 252 256 256 258 259 258 261 264 269 269 272 272 274 273 272 274 276 276 276 279 284 280 290 288 289 293 293 293 290 288 282 282 283 276 278 279 285 295 298 297 298 298
241 244 246 249 253 255 255 255 259 264 268 271 272 271 273 272 273 273 276 277 279 279 281 280 283 284 285 289 289 289 289 286 283 282 284 281 282 280 284 294 298 298 297 298
242 242 245 248 252 255 254 262 262 262 265 267 267 270 271 273 274 274 274 273 278 279 275 280 280 283 284 284 285 283 284 284 281 280 284 285 284 282 285 293 296 298 297 298
239 240 242 244 246 250 257 257 262 264 264 265 267 269 269 270 271 273 272 274 278 275 276 277 279 281 279 281 281 281 282 283 278 280 283 284 283 280 282 289 294 298 297 295
239 240 240 243 245 248 251 258 261 259 261 261 266 268 267 270 269 271 272 275 277 276 278 278 280 281 279 281 278 281 281 280 276 279 284 285 279 282 287 295 296 299 296 297
240 241 243 243 246 250 250 251 252 254 256 262 263 263 265 266 270 273 275 278 278 279 279 279 280 280 280 275 278 283 280 278 277 278 282 279 281 282 290 295 299 298 295 290
238 243 245 246 247 250 246 247 250 252 256 257 260 262 265 269 273 275 278 277 277 276 278 278 279 280 275 275 282 283 278 276 274 278 277 281 291 290 287 293 299 299 294 290
238 241 244 246 245 242 243 245 248 250 252 256 260 265 268 271 275 277 277 278 277 276 277 277 278 278 279 279 279 274 272 273 275 281 286 292 291 295 292 295 298 299 299 295
237 242 241 240 242 244 241 243 247 249 254 258 260 261 269 272 276 278 277 276 275 277 279 282 280 275 270 269 269 270 272 279 282 291 294 295 295 296 295 294 295 297 297 294
230 235 236 237 241 240 242 244 248 251 252 254 257 260 264 268 273 277 277 276 277 281 281 275 269 267 269 271 273 276 281 285 289 292 293 295 297 295 294 295 295 296 295 294
230 231 233 237 235 238 242 243 247 250 252 254 256 260 263 267 269 273 276 278 278 275 272 272 273 272 274 276 279 282 285 284 285 287 289 290 292 292 291 290 295 296 295 294
231 235 235 235 237 240 242 243 245 247 249 250 254 257 261 266 266 267 270 272 274 274 275 275 277 278 280 282 284 287 285 284 286 293 293 296 295 296 296 295 293 293 293 293
Height
10841 10846 10841 10841 10851 10847 10847 10847 10846 10854 10852 10847 10843 10840 10842 10840 10839 10835 10830 10828 10823 10815 10811 10808 10804 10800 10797 10793 10790 10788 10784 10780 10776 10774 10772 10770 10768 10765 10762 10760 10758 10757 10754 10751
10830 10835 10825 10827 10838 10835 10834 10836 10835 10841 10844 10839 10835 10834 10833 10830 10828 10826 10823 10821 10818 10814 10809 10804 10800 10794 10788 10788 10784 10780 10778 10775 10772 10768 10765 10763 10761 10759 10757 10754 10752 10750 10747 10744
10813 10817 10816 10811 10820 10824 10820 10822 10823 10830 10831 10831 10826 10824 10826 10820 10816 10815 10813 10812 10812 10807 10803 10803 10798 10793 10788 10781 10777 10775 10772 10770 10766 10763 10759 10755 10753 10750 10747 10746 10744 10741 10738 10736
10801 10802 10800 10797 10804 10810 10811 10808 10810 10814 10819 10819 10818 10814 10817 10812 10808 10805 10803 10802 10802 10801 10799 10794 10792 10785 10781 10777 10772 10768 10764 10763 10761 10757 10754 10750 10746 10743 10739 10737 10734 10732 10729 10727
10788 10784 10786 10789 10784 10791 10795 10793 10795 10799 10806 10811 10802 10810 10800 10801 10797 10793 10792 10791 10790 10791 10792 10787 10783 10779 10775 10769 10765 10762 10758 10754 10752 10750 10745 10742 10739 10735 10731 10728 10725 10721 10719 10717
10766 10768 10769 10774 10770 10768 10774 10779 10778 10781 10794 10804 10785 10798 10792 10788 10784 10782 10780 10779 10782 10782 10779 10777 10773 10770 10766 10761 10757 10752 10748 10745 10741 10739 10737 10734 10731 10727 10724 10720 10715 10711 10710 10707
10744 10743 10750 10754 10755 10755 10751 10758 10761 10769 10778 10788 10781 10787 10783 10775 10772 10769 10768 10767 10769 10770 10769 10768 10764 10760 10756 10753 10749 10745 10741 10736 10733 10729 10726 10724 10721 10718 10714 10711 10707 10703 10699 10696
10715 10727 10737 10742 10738 10727 10730 10735 10747 10749 10757 10770 10776 10780 10773 10761 10757 10755 10755 10756 10758 10755 10753 10753 10753 10749 10744 10741 10739 10735 10731 10727 10723 10719 10716 10712 10709 10707 10703 10699 10696 10693 10689 10685
10693 10705 10714 10714 10707 10704 10718 10719 10727 10730 10745 10752 10762 10766 10761 10750 10740 10739 10740 10741 10745 10747 10739 10739 10737 10733 10731 10730 10728 10724 10720 10717 10713 10709 10705 10701 10697 10693 10688 10684 10681 10679 10677 10673
10673 10677 10689 10688 10683 10691 10703 10702 10706 10709 10723 10728 10748 10753 10752 10741 10726 10721 10722 10725 10729 10733 10729 10727 10727 10723 10719 10714 10712 10710 10707 10704 10700 10697 10693 10691 10686 10682 10678 10674 10669 10665 10662 10659
10636 10645 10668 10663 10674 10682 10677 10685 10690 10687 10698 10712 10726 10741 10735 10733 10715 10707 10704 10707 10712 10714 10711 10713 10715 10712 10710 10705 10700 10696 10692 10690 10686 10684 10680 10676 10673 10669 10665 10661 10657 10652 10650 10645
10621 10617 10629 10648 10650 10659 10661 10673 10670 10673 10686 10681 10701 10732 10721 10715 10702 10693 10691 10689 10694 10695 10694 10699 10701 10697 10692 10690 10687 10685 10683 10680 10674 10668 10664 10661 10658 10654 10650 10646 10644 10640 10637 10633
10598 10590 10601 10613 10629 10652 10653 10655 10655 10651 10655 10666 10678 10715 10699 10693 10689 10681 10676 10676 10676 10675 10678 10677 10681 10680 10677 10675 10672 10670 10668 10663 10660 10658 10652 10645 10641 10638 10634 10630 10626 10622 10619 10615
10562 10563 10569 10595 10626 10620 10622 10635 10634 10628 10629 10662 10667 10682 10678 10672 10663 10661 10666 10665 10661 10662 10662 10660 10661 10662 10660 10659 10658 10657 10653 10649 10645 10641 10637 10631 10626 10620 10617 10612 10607 10603 10600 10598
10531 10538 10553 10579 10591 10596 10605 10613 10613 10612 10635 10626 10657 10653 10656 10652 10643 10643 10646 10647 10648 10648 10649 10649 10647 10644 10641 10640 10636 10635 10636 10631 10627 10622 10619 10615 10610 10605 10600 10595 10591 10587 10583 10580
10506 10515 10534 10552 10566 10570 10574 10583 10599 10612 10617 10615 10621 10634 10633 10617 10623 10626 10626 10628 10631 10633 10633 10633 10632 10631 10627 10625 10621 10616 10613 10610 10606 10603 10600 10596 10592 10588 10583 10577 10573 10569 10564 10560
10491 10505 10521 10540 10542 10540 10543 10585 10582 10588 10594 10593 10598 10612 10603 10600 10600 10601 10607 10610 10613 10613 10614 10615 10616 10614 10611 10607 10602 10599 10594 10590 10588 10585 10582 10578 10574 10570 10566 10560 10554 10550 10543 10539
10480 10489 10501 10517 10518 10513 10554 10555 10565 10569 10569 10571 10577 10584 10578 10580 10579 10583 10587 10592 10594 10594 10595 10596 10596 10595 10592 10588 10584 10581 10577 10573 10570 10568 10565 10562 10557 10552 10548 10542 10536 10530 10523 10517
10462 10469 10478 10485 10497 10514 10532 10548 10545 10540 10551 10553 10556 10557 10556 10557 10560 10567 10568 10571 10573 10575 10575 10575 10575 10573 10571 10567 10564 10561 10558 10555 10553 10549 10546 10543 10537 10531 10524 10519 10513 10506 10499 10491
10438 10448 10458 10472 10480 10499 10540 10522 10522 10520 10531 10541 10534 10533 10532 10533 10541 10545 10548 10550 10553 10555 10556 10555 10554 10553 10548 10545 10543 10541 10539 10535 10533 10531 10527 10521 10515 10510 10503 10496 10489 10482 10476 10467
10421 10436 10447 10460 10465 10496 10506 10502 10500 10506 10533 10508 10510 10510 10513 10516 10520 10525 10528 10531 10534 10535 10535 10532 10531 10530 10527 10525 10524 10521 10517 10515 10512 10508 10503 10499 10494 10487 10480 10473 10465 10458 10452 10445
10415 10423 10435 10446 10454 10474 10479 10482 10489 10495 10493 10497 10496 10494 10494 10497 10501 10505 10508 10511 10514 10514 10513 10510 10510 10509 10507 10505 10501 10497 10494 10491 10489 10486 10481 10475 10467 10461 10452 10446 10438 10429 10421 10412
10400 10419 10421 10427 10443 10453 10458 10464 10471 10478 10478 10479 10479 10480 10481 10483 10484 10485 10488 10491 10491 10490 10491 10487 10485 10484 10483 10482 10479 10477 10474 10471 10467 10462 10455 10447 10440 10433 10423 10416 10407 10398 10389 10380
10383 10393 10402 10410 10431 10436 10441 10447 10451 10456 10459 10461 10464 10466 10469 10469 10469 10469 10469 10468 10468 10468 10469 10466 10464 10464 10462 10461 10458 10456 10453 10449 10442 10435 10428 10418 10409 10401 10392 10382 10374 10366 10358 10349
10365 10372 10386 10403 10416 10418 10424 10431 10433 10438 10442 10444 10447 10452 10453 10455 10455 10454 10453 10452 10451 10449 10449 10446 10444 10444 10442 10439 10437 10433 10429 10425 10419 10413 10407 10399 10389 10378 10366 10355 10344 10333 10324 10315
10358 10368 10376 10387 10394 10400 10405 10409 10416 10421 10425 10431 10434 10437 10438 10437 10438 10437 10436 10435 10435 10433 10431 10429 10426 10423 10421 10417 10413 10409 10402 10396 10389 10381 10372 10361 10350 10339 10328 10318 10308 10299 10289 10279